User: anonymous   Login
Location: Dillon
(41.1766°N, 107.0923°W)
Time: 06:28:43
(UTC+00:00)
Language:

SJ-7 - Orbit

View from above orbital plane
View from above orbital plane
View from above satellite
View from above satellite

Ground track
Ground track

The orbit data is extracted from the following two-line orbital elements,

1 28737U 05024A   22340.94879511  .00003262  00000-0  27670-3 0  9991
2 28737  97.7230 337.1855 0034391 104.3535 256.1509 14.98179083953814
Epoch (UTC): 06 December 2022 22:46:15
Eccentricity: 0.0034391
inclination: 97.7230°
perigee height: 548 km
apogee height: 596 km
right ascension of ascending node: 337.1855°
argument of perigee: 104.3535°
revolutions per day: 14.98179083
mean anomaly at epoch: 256.1509°
orbit number at epoch: 95381

The dashed part of the orbit path shows where the satellite is in the earth's shadow,  

DLR